Weather in Bol'shoye Mokroye

Russia / Nizhny Novgorod Oblast'     56°07′40″N   44°04′40″E
temp.,
°C
wind,
m/s
gust,
m/s
humid.,
%
clouds,
%
prec.,
mm/h
press.,
hPa
HPBL,
m
13 may, thu
thu1300:00+16se3107170 0.0 1022291
03:00+14se277944 0.0 1022183
06:00+15ese26800 0.0 1022199
09:00+20ese48635 0.0 1021769
12:00+23ese7114786 0.0 10201593
15:00+20se81171100 0.5 10191111
18:00+18se41182100 1.4 1018869
21:00+16s2691100 1.8 1017177
14 may, fri
fri1400:00+14ssw23950 0.0 101877
03:00+13ssw22965 0.0 101933
06:00+14ssw139194 0.0 1020114
09:00+18s2376100 0.0 1020488
12:00+21s235999 0.0 1020932
15:00+23sse34508 0.0 10191679
18:00+22se3562100 0.0 1017516
21:00+18se2381100 0.1 101756
15 may, sat
sat1500:00+17se2890100 0.9 1015189
03:00+16se369289 0.9 1015115
06:00+17se2787100 0.0 1015201
09:00+21sse5965100 0.0 1014510
12:00+25s7124655 0.0 10131058
15:00+26s713465 0.0 10131392
18:00+23ssw496023 0.0 1013925
21:00+20s4126499 0.0 1013610
16 may, sun
sun1600:00+17ssw39825 0.0 1014267
03:00+15ssw25885 0.0 1014124
06:00+17ssw2385100 0.0 1015141
09:00+21ssw3566100 0.0 1015726
12:00+24sw464886 0.0 10151609
15:00+24wsw3549100 0.0 10141423
18:00+23wsw35543 0.0 1014642
21:00+18sw26690 0.0 1015151
17 may, mon
mon1700:00+16w227910 0.0 101627
03:00+15wnw118383 0.0 101711
06:00+16nnw11755 0.0 101899
09:00+21nne00565 0.0 1018532
12:00+25ene01455 0.0 10181055
15:00+26sse224543 0.0 10171393
18:00+25ese225625 0.0 1017689
21:00+20e237494 0.6 101760